Regional Weather Roundup
Issued by NWS New Orleans/Baton Rouge, LA

Home | Current Version | Previous Version | Text Only | Print | Product List | Glossary On
Versions: 1 2 3 4 5 6 7 8 9 10 11 12 13 14 15 16 17 18 19 20 21 22 23 24 25 26 27 28 29 30 31 32 33 34 35 36 37 38 39 40 41 42 43 44 45 46 47 48 49 50
000
ASUS44 KLIX 252110
RWRLIX
NEW ORLEANS REGIONAL WEATHER ROUNDUP
NATIONAL WEATHER SERVICE NEW ORLEANS LA
300 PM CST THU DEC 25 2014

NOTE: "FAIR" INDICATES FEW OR NO CLOUDS BELOW 12,000 FEET WITH NO
      SIGNIFICANT WEATHER AND/OR OBSTRUCTIONS TO VISIBILITY.
      SKY/WX - SKY CONDITION AND SIGNIFICANT WEATHER.
      TMP - AIR TEMPERATURE.     DP    - DEWPOINT TEMPERATURE.
      RH  - RELATIVE HUMIDITY.   PRES  - PRESSURE.
      HI  - HEAT INDEX.          WCI   - WIND CHILL INDEX.

*  THESE STATIONS ARE NOT NWS OR FAA STATIONS AND ARE NOT UNDER
   NWS QUALITY CONTROL.

LAZ038-040-048-061>063-065>067-069-252200-
SOUTHEAST LOUISIANA

CITY           SKY/WX    TMP DP  RH WIND       PRES   REMARKS
N.O. AUDUBON     N/A     56  39  52 MISG        N/A
N.O. INTL ARPT PTSUNNY   56  39  53 NE7       30.21F
N.O. LAKEFRONT MOSUNNY   56  38  50 NE7       30.22F
N.O. DOWNTOWN*   N/A     57  37  47 NE6       30.22S
SLIDELL        MOSUNNY   56  37  49 S6        30.21F
BATON ROUGE    MOSUNNY   57  34  41 S6        30.20S
BOOTHVILLE     SUNNY     53  39  59 NE7       30.23F
BELLE CHASSE   PTSUNNY   58  35  42 SW6       30.21F
BOGALUSA*        N/A     59  36  41 CALM      30.22F
GALLIANO*      PTCLDY    58  37  45 MISG      30.23R
NEW ROADS*       N/A     57  34  43 CALM      30.19S
GONZALES*        N/A     58  36  44 S6        30.20S
HAMMOND*       NOT AVBL
HOUMA*         SUNNY     57  36  44 SE6       30.21F
PORT FOURCHON* CLEAR     54  41  62 E8        30.25S

$$

MSZ070-080>082-252200-
SOUTHERN MISSISSIPPI

CITY           SKY/WX    TMP DP  RH WIND       PRES   REMARKS
MCCOMB         SUNNY     57  35  43 S5        30.19F
GULFPORT       SUNNY     53  38  56 S7        30.22F
BILOXI         SUNNY     54  39  57 SW8       30.22F
PASCAGOULA     SUNNY     57  38  48 VRB6      30.22F
STENNIS ARPT*  SUNNY     57  32  38 CALM      30.22S

$$

COASTAL OBSERVATIONS
LAKE AND NEARSHORE STATIONS

STATION/POSITION TIME  TEMP    WIND        PRES    WAVE
                       AIR SEA DIR/SP/G            HT/PER
                 (UTC) (F)     (DEG/KT/KT) (MB)    (FT/S)
PASCAGOULA       2100   53     210/  6/  8 1023.2
WAVELAND YACHT   2100   53     190/  6/  8 1022.3
GRAND ISLE       2100   54 58  130/  4/  5 1024.0
SOUTHWEST PASS   2100   73                 1024.1
NEW CANAL        2100   52 56   50/  6/  7 1023.5
SHELL BEACH      2100   53 58   40/  5/  7 1023.2

OFFSHORE STATIONS

STATION/POSITION TIME  TEMP    WIND        PRES    WAVE
                       AIR SEA DIR/SP/G            HT/PER
                 (UTC) (F)     (DEG/KT/KT) (MB)    (FT/S)
64 S DAUPHIN ISL 2100   55 73   20/  6/  8 1023.5    3/ 8

$$



USA.gov is the U.S. government's official web portal to all federal, state and local government web resources and services.